Location: Lake Almanor
(40.2485°N, 121.1442°W)
Time: 01:55:36
(UTC-08:00)

STARLINK-1108 - Pass Details

Date: 03 February 2020
Orbit: 349 x 351 km, 53.0° (Epoch: 18 February)

Event Time Altitude Azimuth Distance (km) Brightness Sun altitude
Rises 17:55:24 0° 306° (NW) 2,164 7.3 -6.3°
Reaches altitude 10° 17:57:26 10° 301° (WNW) 1,319 6.2 -6.6°
Maximum altitude 18:00:19 54° 223° (SW) 432 3.5 -7.2°
Drops below altitude 10° 18:03:11 10° 144° (SE) 1,311 5.4 -7.7°
Sets 18:05:12 0° 140° (SE) 2,150 6.4 -8.1°
